DECAYED

H-2A DEB, 43371 (Decayed)

Orbit data source: Space-Track

H-2A DEB, 43371 was space debris in LEO originally from a launch on Mon, 04 Feb 2002 UTC launched from the Tanegashima Space Center (TNSTA). Debris objects in space refer to the collection of defunct objects orbiting the Earth. Examples of debris include non-operational satellites, rocket bodies, and fragments generated from explosions, collisions, or faulty payload assembly.

Not visible in the next 10 days
Identifier
43371, 2002-003F
Orbit
Decayed
Country
Flag of JPJP / JPN
Related business
Manufacturer
Unknown
Mission
Decayed spacecraft
Bus & Motor
Unknown
Mass
Unknown
Launch date (UTC)
2002-02-04 (24 years ago)
Launch vehicle
Unknown
Launch site
Tanegashima Space Center (TNSTA)
Object type
Payload
Rocket body
Debris
Shape & HBR
Unknown shape, 0.1 m
Radar Cross Section
Medium (>0.1 m² and <1 m²)

Expand to show TLE details & history
Last TLE update: 7 months ago

TLE from 7 months ago
0 H-2A DEB
1 43371U 02003F   25356.45307081  .04604931  32698-2  33611-1 0  9994
2 43371  28.7657  52.8896 1015336 109.3678 261.9344 13.75591447  6513
Epoch: 2025-12-22T10:52Z
TLE epoch observation values (Epoch: 2025-12-22T10:52:25.317Z)
Latitude
-0.00006°
Longitude
158.53306°
Altitude
1,155.054 km
Speed
7.19 km/s
True Right ascension
03h 31m 33s
True Declination
0° 00' 00"
Sunlit
Object was in full shadow at epoch
Visualization orbit readout
Latitude
Unknown
Longitude
Unknown
Altitude
Unknown
Speed
Unknown
Apparent Right ascension
Unknown
Apparent Declination
Unknown
Sunlit
N/A
Visualization observer readout
Local Sidereal Time
10:37:09
Azimuth
Unknown
Elevation
Unknown
Doppler factor
Unknown
Orbital elements
Apogee altitude
1,730.996 km
Perigee altitude
236.081 km
Semi-major axis
7,361.676 km
Eccentricity
0.10153
Inclination
28.7657°
RAAN
52.8896°
Arg. of periapsis
109.3678°
True anomaly
250.68873°
Mean anomaly
261.9344°
Eccentric anomaly
256.28288°
Mean motion
3.4362 °/min
Orbital period
104.77 mins
BSTAR
0.033611
Loading maneuver chart data...
Computing Atmospheric mass density...
Loading historical data...
Loading historical data...
Loading historical data...
Loading historical data...
Loading historical data...
Loading historical data...
Loading historical data...
Other satellites on launch #3 in the year 2002 (2002-02-04 UTC)

Documentation

Showing up to 5 results
|